KE8AFF-13 Weather Reports


time (UTC)temp
C
wind
direction
speed
KPH
gust
KPH
rain 1hr
cm
rain 24hr
cm
rain mn
cm
humidity
%
barometer
mb
20260504011148 10 203 6.4 9.7 0.00 0.00 0.00 76 1012.4
20260504010644 10 200 1.6 9.7 0.00 0.00 0.00 76 1012.5
20260504010140 10 220 9.7 12.9 0.00 0.00 0.00 76 1012.3
20260504005637 10 209 12.9 14.5 0.00 0.00 0.00 76 1012.5
20260504005133 10 196 4.8 11.3 0.00 0.00 0.00 76 1012.6
20260504004632 10 189 6.4 14.5 0.00 0.00 0.00 76 1012.7
20260504004129 10 222 4.8 9.7 0.00 0.00 0.00 75 1012.7
20260504003625 10 193 1.6 3.2 0.00 0.00 0.00 74 1012.5
20260504003122 10 195 3.2 8.0 0.00 0.00 0.00 73 1012.6
20260504002618 10 209 8.0 9.7 0.00 0.00 0.00 72 1012.7
20260504002116 10 224 3.2 8.0 0.00 0.00 0.00 72 1012.8
20260504001608 10 200 6.4 12.9 0.00 0.00 0.00 72 1012.6
20260504001103 10 214 11.3 16.1 0.00 0.00 0.00 71 1012.8
20260504000601 10 219 8.0 12.9 0.00 0.00 0.00 71 1012.9
20260504000059 10 215 16.1 22.5 0.00 0.00 0.00 70 1012.9
20260503235556 10 225 12.9 24.1 0.00 0.00 0.00 69 1012.9
20260503235053 10 269 12.9 17.7 0.00 0.00 0.00 69 1013.2
20260503234551 10 236 19.3 20.9 0.00 0.00 0.00 68 1013.1
20260503234049 10 296 16.1 20.9 0.00 0.00 0.00 67 1013.3
20260503233545 11 217 17.7 22.5 0.00 0.00 0.00 66 1013.5
20260503233041 11 240 16.1 40.2 0.00 0.00 0.00 65 1013.1
20260503232539 11 223 17.7 32.2 0.00 0.00 0.00 63 1013.3
20260503232036 11 264 19.3 22.5 0.00 0.00 0.00 62 1013.3
20260503231534 11 288 20.9 35.4 0.00 0.00 0.00 62 1013.2
20260503231030 11 271 24.1 32.2 0.00 0.00 0.00 60 1012.9
20260503230526 12 256 19.3 24.1 0.00 0.00 0.00 58 1012.8
20260503230024 13 248 11.3 16.1 0.00 0.00 0.00 55 1012.8
20260503225521 14 273 12.9 20.9 0.00 0.00 0.00 44 1012.6
20260503225015 14 214 6.4 11.3 0.00 0.00 0.00 44 1012.4
20260503224513 14 191 4.8 29.0 0.00 0.00 0.00 45 1012.7
20260503224006 14 242 16.1 29.0 0.00 0.00 0.00 44 1012.6
20260503223503 15 271 11.3 22.5 0.00 0.00 0.00 43 1012.6
20260503222958 15 210 14.5 25.7 0.00 0.00 0.00 42 1012.5
20260503222457 15 239 4.8 14.5 0.00 0.00 0.00 42 1012.4
20260503221955 15 210 8.0 16.1 0.00 0.00 0.00 42 1012.8
20260503221453 15 266 9.7 16.1 0.00 0.00 0.00 42 1012.7
20260503220950 15 256 8.0 14.5 0.00 0.00 0.00 42 1012.4
20260503220446 15 189 14.5 20.9 0.00 0.00 0.00 41 1012.9
20260503215943 15 228 11.3 17.7 0.00 0.00 0.00 40 1012.7
20260503215440 15 250 14.5 33.8 0.00 0.00 0.00 41 1012.8
20260503214937 15 237 16.1 22.5 0.00 0.00 0.00 41 1012.8
20260503214435 15 214 8.0 17.7 0.00 0.00 0.00 43 1012.8
20260503213932 15 207 12.9 25.7 0.00 0.00 0.00 41 1012.7
20260503213430 15 204 11.3 27.4 0.00 0.00 0.00 41 1012.8
20260503212926 15 254 6.4 22.5 0.00 0.00 0.00 41 1012.9
20260503212424 15 243 8.0 20.9 0.00 0.00 0.00 40 1012.8
20260503211921 15 232 16.1 32.2 0.00 0.00 0.00 39 1012.9
20260503211418 15 220 11.3 24.1 0.00 0.00 0.00 41 1013.0
20260503210913 15 227 14.5 37.0 0.00 0.00 0.00 40 1012.9
20260503210411 15 218 19.3 32.2 0.00 0.00 0.00 40 1013.1
20260503205911 15 288 14.5 22.5 0.00 0.00 0.00 41 1013.1
20260503205409 15 223 17.7 25.7 0.00 0.00 0.00 41 1013.1
20260503204904 15 221 16.1 22.5 0.00 0.00 0.00 40 1013.0
20260503204402 15 246 19.3 25.7 0.00 0.00 0.00 41 1013.0
20260503203859 15 202 12.9 35.4 0.00 0.00 0.00 42 1013.1
20260503203356 15 216 9.7 20.9 0.00 0.00 0.00 41 1013.2
20260503202853 15 226 19.3 25.7 0.00 0.00 0.00 40 1013.3
20260503202351 15 262 9.7 24.1 0.00 0.00 0.00 40 1013.7
20260503201849 15 245 14.5 25.7 0.00 0.00 0.00 40 1013.5
20260503201346 15 225 19.3 37.0 0.00 0.00 0.00 39 1013.5
20260503200844 15 221 16.1 20.9 0.00 0.00 0.00 41 1013.6
20260503200339 15 222 12.9 24.1 0.00 0.00 0.00 40 1013.7
20260503195837 15 219 17.7 24.1 0.00 0.00 0.00 39 1013.7
20260503195333 15 234 11.3 12.9 0.00 0.00 0.00 40 1013.7
20260503194830 15 227 17.7 25.7 0.00 0.00 0.00 40 1013.9
20260503194326 15 233 20.9 27.4 0.00 0.00 0.00 40 1013.9
20260503193823 15 238 17.7 40.2 0.00 0.00 0.00 41 1013.9
20260503193319 15 229 14.5 22.5 0.00 0.00 0.00 40 1013.9
20260503192815 15 197 14.5 27.4 0.00 0.00 0.00 41 1014.1
20260503192310 15 221 11.3 20.9 0.00 0.00 0.00 42 1014.4
20260503191806 15 225 11.3 24.1 0.00 0.00 0.00 43 1014.2
20260503191303 15 226 19.3 29.0 0.00 0.00 0.00 41 1014.4
20260503190800 15 207 19.3 25.7 0.00 0.00 0.00 41 1014.6
20260503190257 15 211 11.3 24.1 0.00 0.00 0.00 41 1014.5
20260503185754 15 241 11.3 22.5 0.00 0.00 0.00 42 1014.6
20260503185250 15 238 12.9 32.2 0.00 0.00 0.00 42 1014.7
20260503184745 15 215 9.7 25.7 0.00 0.00 0.00 42 1014.8
20260503184241 15 212 12.9 29.0 0.00 0.00 0.00 42 1014.7
20260503183737 14 220 24.1 35.4 0.00 0.00 0.00 42 1015.1
20260503183235 15 245 14.5 22.5 0.00 0.00 0.00 42 1015.0
20260503182733 15 247 20.9 32.2 0.00 0.00 0.00 41 1014.9
20260503182231 15 236 17.7 24.1 0.00 0.00 0.00 41 1015.3
20260503181727 15 263 9.7 17.7 0.00 0.00 0.00 42 1015.1
20260503181219 14 232 8.0 16.1 0.00 0.00 0.00 43 1015.3
20260503180715 15 217 12.9 24.1 0.00 0.00 0.00 42 1015.4
20260503180214 15 219 9.7 27.4 0.00 0.00 0.00 42 1015.6
20260503175710 14 212 20.9 24.1 0.00 0.00 0.00 41 1015.3
20260503175208 15 205 12.9 20.9 0.00 0.00 0.00 40 1015.8
20260503174704 15 226 4.8 17.7 0.00 0.00 0.00 43 1015.5
20260503174202 15 205 17.7 22.5 0.00 0.00 0.00 42 1015.6
20260503173656 14 160 12.9 24.1 0.00 0.00 0.00 41 1015.9
20260503173153 14 240 14.5 22.5 0.00 0.00 0.00 43 1015.8
20260503172650 14 237 14.5 27.4 0.00 0.00 0.00 44 1015.8
20260503172147 14 195 14.5 16.1 0.00 0.00 0.00 44 1015.9
20260503171643 14 229 6.4 14.5 0.00 0.00 0.00 43 1016.0
20260503171141 14 225 6.4 20.9 0.00 0.00 0.00 44 1016.0
20260503170638 14 253 12.9 22.5 0.00 0.00 0.00 44 1016.1
20260503170135 14 218 16.1 24.1 0.00 0.00 0.00 43 1016.4
20260503150526 12 225 14.5 17.7 0.00 0.00 0.00 51 1018.1
20260503131419 7 248 8.0 16.1 0.00 0.00 0.00 61 1018.9
20260503130916 7 221 4.8 14.5 0.00 0.00 0.00 62 1019.0
20260503130414 7 218 8.0 20.9 0.00 0.00 0.00 60 1019.1
20260503110812 1 213 3.2 4.8 0.00 0.00 0.00 83 1018.7
20260503110309 1 202 4.8 4.8 0.00 0.00 0.00 84 1018.5
20260503100235 1 202 1.6 3.2 0.00 0.00 0.00 85 1018.2
20260503090200 1 210 1.6 3.2 0.00 0.00 0.00 82 1018.2
20260503081630 2 237 1.6 3.2 0.00 0.00 0.00 79 1017.9
20260503081127 2 233 1.6 1.6 0.00 0.00 0.00 79 1018.0
20260503080623 2 227 1.6 3.2 0.00 0.00 0.00 79 1018.1
20260503080120 2 226 1.6 3.2 0.00 0.00 0.00 79 1018.1
20260503072557 2 225 3.2 3.2 0.00 0.00 0.00 80 1017.9
20260503072054 2 184 4.8 4.8 0.00 0.00 0.00 80 1018.1
20260503071551 2 212 3.2 4.8 0.00 0.00 0.00 80 1018.1
20260503071048 2 213 3.2 3.2 0.00 0.00 0.00 80 1018.1
20260503070544 2 211 3.2 3.2 0.00 0.00 0.00 80 1017.9
20260503055003 3 216 1.6 1.6 0.00 0.00 0.00 77 1018.2
20260503054459 3 211 1.6 1.6 0.00 0.00 0.00 77 1018.3
20260503053957 3 209 1.6 3.2 0.00 0.00 0.00 77 1018.1
20260503053454 3 217 1.6 1.6 0.00 0.00 0.00 77 1018.3
20260503052951 3 212 1.6 1.6 0.00 0.00 0.00 77 1018.3
20260503052448 3 217 1.6 3.2 0.00 0.00 0.00 77 1018.0
20260503051944 3 212 1.6 3.2 0.00 0.00 0.00 78 1018.1
20260503051440 3 217 1.6 1.6 0.00 0.00 0.00 79 1018.1
20260503050938 3 221 0.0 1.6 0.00 0.00 0.00 79 1018.0
20260503050433 3 213 1.6 1.6 0.00 0.00 0.00 79 1018.1
20260503045932 3 222 3.2 3.2 0.00 0.00 0.00 79 1018.1
20260503045429 3 215 3.2 3.2 0.00 0.00 0.00 79 1018.1
20260503044925 3 214 1.6 1.6 0.00 0.00 0.00 79 1018.2
20260503044422 3 209 1.6 1.6 0.00 0.00 0.00 80 1018.0
20260503043920 3 220 0.0 0.0 0.00 0.00 0.00 79 1018.1
20260503043416 3 220 0.0 1.6 0.00 0.00 0.00 80 1018.0
20260503042913 3 217 1.6 1.6 0.00 0.00 0.00 80 1018.2
20260503042409 3 209 1.6 1.6 0.00 0.00 0.00 79 1018.1
20260503041906 3 211 1.6 1.6 0.00 0.00 0.00 79 1017.9
20260503041403 3 214 1.6 1.6 0.00 0.00 0.00 79 1017.9
20260503040900 3 210 1.6 1.6 0.00 0.00 0.00 79 1017.9
20260503040358 3 209 1.6 1.6 0.00 0.00 0.00 80 1017.9
20260503035854 3 213 1.6 1.6 0.00 0.03 0.03 80 1018.1
20260503035351 3 215 0.0 1.6 0.00 0.03 0.03 80 1018.3
20260503034849 3 215 0.0 1.6 0.00 0.03 0.03 80 1017.9
20260503034346 4 215 0.0 1.6 0.00 0.03 0.03 80 1018.2
20260503033843 4 212 0.0 1.6 0.00 0.03 0.03 80 1018.0
20260503033341 4 211 0.0 1.6 0.00 0.03 0.03 80 1018.1
20260503032838 4 211 0.0 1.6 0.00 0.03 0.03 80 1018.1
20260503032337 4 209 1.6 1.6 0.00 0.03 0.03 79 1018.2
20260503031834 4 216 0.0 0.0 0.00 0.03 0.03 81 1018.3
20260503031332 4 216 1.6 1.6 0.00 0.03 0.03 80 1018.1
20260503030828 4 212 0.0 0.0 0.00 0.03 0.03 80 1018.0
20260503030325 4 211 0.0 0.0 0.00 0.03 0.03 80 1018.1
20260503025821 4 212 0.0 0.0 0.00 0.03 0.03 79 1018.1
20260503025319 5 212 0.0 0.0 0.00 0.03 0.03 78 1018.2
20260503024815 5 211 0.0 0.0 0.00 0.03 0.03 77 1018.2
20260503024312 5 211 0.0 0.0 0.00 0.03 0.03 76 1018.3
20260503023809 5 212 0.0 0.0 0.00 0.03 0.03 76 1018.4
20260503023307 5 212 0.0 0.0 0.00 0.03 0.03 75 1018.4
20260503022803 5 210 0.0 1.6 0.00 0.03 0.03 75 1018.4
20260503022304 5 212 0.0 0.0 0.00 0.03 0.03 74 1018.3
20260503021800 5 209 0.0 1.6 0.00 0.03 0.03 74 1018.4
20260503021255 5 212 0.0 1.6 0.00 0.03 0.03 73 1018.3
20260503020754 5 218 0.0 0.0 0.00 0.03 0.03 73 1018.3
20260503020251 5 218 0.0 0.0 0.00 0.03 0.03 73 1018.3
20260503015747 5 218 0.0 0.0 0.00 0.03 0.03 72 1018.0
20260503015244 5 218 0.0 0.0 0.00 0.03 0.03 71 1018.2
20260503014740 5 218 0.0 0.0 0.00 0.03 0.03 71 1018.0
20260503014238 5 218 0.0 0.0 0.00 0.03 0.03 70 1017.9
20260503013735 5 217 0.0 0.0 0.00 0.03 0.03 70 1018.1
20260503013233 5 217 0.0 0.0 0.00 0.03 0.03 68 1018.0
20260503012730 5 219 0.0 1.6 0.00 0.03 0.03 68 1017.8
20260503012227 5 215 0.0 0.0 0.00 0.03 0.03 68 1017.9
20260503011723 6 219 0.0 1.6 0.00 0.03 0.03 68 1017.8